Weather reports worldwide

Advertisment
Lichteiland Goeree, Netherlands (6320): temperature & dewpoint: 10.12.2019 13:00:00 - 16.12.2019 13:00:00 (CET)Lichteiland Goeree, Netherlands (6320): water temperature: 10.12.2019 13:00:00 - 16.12.2019 13:00:00 (CET)Lichteiland Goeree, Netherlands (6320): wind speed & gusts: 10.12.2019 13:00:00 - 16.12.2019 13:00:00 (CET)Lichteiland Goeree, Netherlands (6320): wind direction: 10.12.2019 13:00:00 - 16.12.2019 13:00:00 (CET)Lichteiland Goeree, Netherlands (6320): reduced air pressure: 10.12.2019 13:00:00 - 16.12.2019 13:00:00 (CET)Lichteiland Goeree, Netherlands (6320): visibility: 10.12.2019 13:00:00 - 16.12.2019 13:00:00 (CET)
Date & Time tt [°C] td [°C] tw [°C] ff [km/h] ff [kn] fx [km/h] fx [kn] dd ppp [hPa] vv [km]
16.12.2019 13:00:00 8,0 7,2 8,0 21 11 29 16 SSW 1003,5 10
16.12.2019 12:00:00 8,0 7,1 8,0 29 16 32 18 SSW 1003,5 10
16.12.2019 11:00:00 7,9 7,0 8,0 31 17 36 19 SSW 1003,9 10
16.12.2019 10:00:00 7,9 6,9 8,0 39 21 40 21 SSW 1003,8 10
16.12.2019 09:00:00 7,7 6,7 8,0 37 20 40 21 S 1003,2 10
16.12.2019 08:00:00 7,6 6,5 8,0 39 21 43 23 SSW 1002,6 10
16.12.2019 07:00:00 7,5 6,4 8,0 41 22 47 25 SSW 1002,5 10
16.12.2019 06:00:00 7,5 6,0 8,0 42 23 47 25 S 1002,3 10
16.12.2019 05:00:00 7,5 5,4 8,0 46 25 47 25 SSW 1002,6 10
16.12.2019 04:00:00 7,4 5,2 8,0 42 23 47 25 SSW 1002,8 10
16.12.2019 03:00:00 7,1 4,8 8,0 39 21 40 21 SSW 1003,2 10
16.12.2019 02:00:00 7,1 4,7 8,0 37 20 40 21 S 1003,3 10
16.12.2019 01:00:00 7,2 4,6 8,0 35 19 43 23 S 1003,2 10
16.12.2019 00:00:00 7,1 4,4 8,0 37 20 50 27 S 1003,3 10
15.12.2019 23:00:00 7,4 4,1 8,0 46 25 50 27 SSW 1003,5 10
15.12.2019 22:00:00 7,6 4,1 8,0 46 25 47 25 SSW 1003,4 10
15.12.2019 21:00:00 7,7 4,5 8,0 48 26 50 27 SSW 1003,1 10
15.12.2019 20:00:00 8,1 4,8 8,0 50 27 54 29 SSW 1002,6 10
15.12.2019 19:00:00 7,9 5,4 8,0 54 29 61 33 SSW 1001,8 10
15.12.2019 18:00:00 8,2 5,7 8,0 50 27 58 31 SW 1001,3 10
15.12.2019 17:00:00 8,8 6,1 8,0 52 28 61 33 SW 1000,4 10
15.12.2019 16:00:00 8,4 5,9 8,0 55 30 65 35 SW 999,1 10
15.12.2019 15:00:00 8,4 6,2 8,0 57 31 65 35 SW 998,4 5
15.12.2019 14:00:00 8,5 6,0 8,0 50 27 58 31 SW 998,2 10
15.12.2019 13:00:00 9,5 5,0 8,0 55 30 65 35 WSW 997,6 10
15.12.2019 12:00:00 9,6 4,9 8,0 52 28 61 33 WSW 997,1 10
15.12.2019 11:00:00 9,1 3,1 8,0 57 31 76 41 WSW 996,4 10
15.12.2019 10:00:00 8,9 2,7 8,0 59 32 72 39 WSW 995,0 10
15.12.2019 09:00:00 8,6 2,8 8,0 68 37 76 41 WSW 993,9 10
15.12.2019 08:00:00 8,7 2,7 8,0 68 37 76 41 W 992,7 10
15.12.2019 07:00:00 9,0 3,3 8,0 67 36 79 43 W 991,3 10
15.12.2019 06:00:00 9,4 5,0 8,0 63 34 72 39 W 989,4 10
15.12.2019 05:00:00 9,3 5,8 8,0 59 32 76 41 WSW 988,8 10
15.12.2019 04:00:00 8,7 7,0 8,0 65 35 76 41 SSW 987,5 10
15.12.2019 03:00:00 8,1 5,7 8,0 55 30 61 33 S 988,6 10
15.12.2019 02:00:00 7,7 4,7 8,0 52 28 58 31 S 990,2 10
15.12.2019 01:00:00 7,7 4,5 8,0 52 28 54 29 S 991,7 10
15.12.2019 00:00:00 7,2 4,3 8,0 44 24 47 25 SSW 993,2 10
14.12.2019 23:00:00 7,3 4,0 8,0 37 20 40 21 S 994,6 9
14.12.2019 22:00:00 8,1 3,9 8,0 34 18 43 23 SW 995,6 10
14.12.2019 21:00:00 8,6 2,8 8,0 44 24 61 33 WSW 995,9 10
14.12.2019 20:00:00 8,5 2,1 8,0 59 32 68 37 W 995,8 10
14.12.2019 19:00:00 8,3 1,0 8,0 61 33 72 39 W 994,9 10
14.12.2019 18:00:00 8,1 0,6 8,0 68 37 83 45 W 994,1 10
14.12.2019 17:00:00 8,1 0,6 8,0 74 40 79 43 W 992,6 10
14.12.2019 16:00:00 7,7 3,6 8,0 68 37 76 41 W 990,9 10
14.12.2019 15:00:00 7,8 4,6 8,0 72 39 86 47 W 989,0 10
14.12.2019 14:00:00 7,4 4,4 8,0 39 21 68 37 WSW 988,3 10
14.12.2019 13:00:00 8,7 3,9 8,0 55 30 58 31 WSW 989,2 10
14.12.2019 12:00:00 8,6 1,8 8,0 59 32 76 41 W 989,4 10
14.12.2019 11:00:00 8,2 1,9 8,0 63 34 83 45 W 988,9 10
14.12.2019 10:00:00 7,8 1,6 8,0 70 38 83 45 W 987,8 10
14.12.2019 09:00:00 7,9 2,8 8,0 68 37 79 43 W 986,4 10
14.12.2019 08:00:00 8,0 3,4 8,0 65 35 72 39 W 985,1 10
14.12.2019 07:00:00 8,0 3,9 8,0 57 31 61 33 W 984,1 10
14.12.2019 06:00:00 8,0 3,8 8,0 54 29 58 31 W 982,9 10
14.12.2019 05:00:00 7,4 3,8 8,0 39 21 47 25 W 981,9 10
14.12.2019 04:00:00 6,8 2,6 8,3 35 19 40 21 WNW 981,2 7
14.12.2019 03:00:00 7,3 2,8 8,0 35 19 50 27 W 980,6 8
14.12.2019 02:00:00 7,5 4,2 8,0 37 20 47 25 WSW 980,6 10
14.12.2019 01:00:00 8,8 2,4 8,0 41 22 50 27 WSW 980,9 10
14.12.2019 00:00:00 8,4 3,0 8,0 50 27 50 27 WSW 981,8 10
13.12.2019 23:00:00 8,3 2,9 8,0 44 24 54 29 WSW 982,1 10
13.12.2019 22:00:00 8,5 3,1 8,0 52 28 58 31 WSW 982,5 10
13.12.2019 21:00:00 8,8 2,8 8,0 50 27 54 29 WSW 983,2 10
13.12.2019 20:00:00 8,9 3,5 8,0 47 25 61 33 W 983,2 14
13.12.2019 19:00:00 9,0 3,6 8,0 54 29 58 31 W 982,9 10
13.12.2019 18:00:00 8,9 3,5 8,0 55 30 61 33 W 982,6 10
13.12.2019 17:00:00 8,8 4,5 8,0 55 30 58 31 W 981,9 10
13.12.2019 16:00:00 8,7 4,8 9,0 55 30 58 31 WNW 981,0 10
13.12.2019 15:00:00 8,5 5,2 9,0 48 26 54 29 WNW 979,7 10
13.12.2019 14:00:00 8,4 5,3 9,0 57 31 58 31 NW 978,5 10
13.12.2019 13:00:00 8,3 6,1 9,0 21 11 54 29 NW 977,2 9
13.12.2019 12:00:00 6,3 5,6 8,0 11 6 14 8 NNW 976,2 5
13.12.2019 11:00:00 6,1 5,2 8,4 8 4 11 6 N 974,9 5
13.12.2019 10:00:00 5,8 5,3 8,0 13 7 22 12 E 973,4 10
13.12.2019 09:00:00 5,4 5,1 8,0 22 12 25 14 E 972,1 10
13.12.2019 08:00:00 5,3 4,5 8,0 22 12 25 14 ESE 971,1 10
13.12.2019 07:00:00 6,0 5,3 8,0 28 15 36 19 SE 970,9 9
13.12.2019 06:00:00 6,2 5,6 8,0 34 18 36 19 SSE 971,0 10
13.12.2019 05:00:00 5,9 5,2 9,0 37 20 50 27 SSE 971,8 10
13.12.2019 04:00:00 5,8 4,8 8,0 48 26 54 29 S 973,0 10
13.12.2019 03:00:00 5,8 4,7 8,0 48 26 54 29 S 973,9 10
13.12.2019 02:00:00 5,6 4,7 8,4 43 23 65 35 S 974,8 15
13.12.2019 01:00:00 5,8 4,8 9,0 59 32 72 39 S 975,8 10
13.12.2019 00:00:00 5,7 4,5 9,0 65 35 76 41 S 977,3 10
12.12.2019 23:00:00 5,8 4,4 8,0 68 37 76 41 S 978,9 9
12.12.2019 22:00:00 6,2 4,4 8,0 63 34 72 39 S 980,8 10
12.12.2019 21:00:00 5,8 4,3 8,0 61 33 68 37 S 983,0 10
12.12.2019 20:00:00 5,7 3,9 8,0 63 34 72 39 S 985,1 10
12.12.2019 19:00:00 5,3 3,9 8,0 59 32 65 35 S 986,3 10
12.12.2019 18:00:00 5,7 3,4 8,0 63 34 65 35 S 988,0 10
12.12.2019 17:00:00 5,8 3,3 8,0 57 31 65 35 S 989,3 10
12.12.2019 16:00:00 6,0 2,8 9,0 55 30 61 33 S 991,0 10
12.12.2019 15:00:00 5,7 2,9 9,0 55 30 61 33 S 992,7 10
12.12.2019 14:00:00 5,8 2,8 9,0 44 24 50 27 S 994,2 10
12.12.2019 13:00:00 5,5 3,2 9,0 42 23 43 23 S 995,8 10
12.12.2019 12:00:00 5,6 3,3 9,0 39 21 40 21 SSW 997,3 10
12.12.2019 11:00:00 5,3 3,2 9,0 42 23 47 25 SSW 998,7 10
12.12.2019 10:00:00 5,6 3,9 9,0 39 21 40 21 SSW 999,5 10
12.12.2019 09:00:00 6,8 1,5 9,0 35 19 36 19 SW 999,9 10
12.12.2019 08:00:00 6,9 1,5 8,0 28 15 32 18 WSW 1000,3 10
12.12.2019 07:00:00 6,9 1,5 8,0 29 16 32 18 WSW 1000,9 10
12.12.2019 06:00:00 6,9 2,1 8,0 29 16 36 19 W 1001,0 10
12.12.2019 05:00:00 6,9 2,1 9,0 29 16 32 18 W 1001,3 10
12.12.2019 04:00:00 7,0 1,8 9,0 35 19 36 19 W 1001,4 10
12.12.2019 03:00:00 7,2 2,6 9,0 35 19 40 21 W 1001,3 10
12.12.2019 02:00:00 7,6 3,4 9,0 34 18 40 21 W 1000,9 10
12.12.2019 01:00:00 6,9 5,2 9,0 44 24 43 23 SW 1001,0 10
12.12.2019 00:00:00 6,8 4,9 9,0 39 21 43 23 SW 1001,5 10
11.12.2019 23:00:00 6,6 5,0 9,0 46 25 47 25 SSW 1001,5 10
11.12.2019 22:00:00 6,9 4,7 9,0 41 22 47 25 SSW 1002,0 10
11.12.2019 21:00:00 7,1 4,8 9,0 44 24 47 25 SW 1002,1 10
11.12.2019 20:00:00 7,2 5,1 9,0 46 25 47 25 SW 1002,4 10
11.12.2019 19:00:00 7,4 5,7 9,0 37 20 40 21 SSW 1002,6 10
11.12.2019 18:00:00 7,5 5,3 9,0 37 20 40 21 SSW 1002,9 10
11.12.2019 17:00:00 7,6 5,1 9,0 41 22 40 21 SW 1003,3 10
11.12.2019 16:00:00 7,6 5,2 9,0 35 19 36 19 SW 1003,7 10
11.12.2019 15:00:00 7,7 5,8 9,0 29 16 32 18 SW 1004,1 10
11.12.2019 14:00:00 7,9 6,2 9,0 29 16 32 18 SW 1004,4 10
11.12.2019 13:00:00 7,7 6,0 9,0 29 16 29 16 SW 1005,3 10
11.12.2019 12:00:00 7,9 6,0 9,0 24 13 25 14 SSW 1006,2 10
11.12.2019 11:00:00 8,6 4,5 9,0 22 12 25 14 SW 1006,9 10
11.12.2019 10:00:00 8,7 3,6 9,0 24 13 25 14 WSW 1007,2 10
11.12.2019 09:00:00 8,8 4,0 9,0 22 12 25 14 W 1007,3 10
11.12.2019 08:00:00 8,9 3,4 9,0 28 15 29 16 W 1007,4 10
11.12.2019 07:00:00 9,2 4,3 9,0 28 15 36 19 W 1007,8 10
11.12.2019 06:00:00 9,2 3,4 9,0 35 19 36 19 WNW 1007,9 10
11.12.2019 05:00:00 9,5 4,0 9,0 42 23 47 25 WNW 1007,7 10
11.12.2019 04:00:00 8,9 7,7 9,0 29 16 32 18 SW 1007,9 10
11.12.2019 03:00:00 9,1 6,9 9,0 31 17 65 35 WSW 1007,9 6
11.12.2019 02:00:00 8,5 7,1 8,8 61 33 68 37 SW 1007,4 4,1
11.12.2019 01:00:00 8,5 6,0 9,0 65 35 72 39 SSW 1007,1 10
11.12.2019 00:00:00 8,8 5,8 9,0 67 36 79 43 SSW 1007,3 10
10.12.2019 23:00:00 8,7 5,8 9,0 67 36 72 39 SSW 1007,6 10
10.12.2019 22:00:00 8,3 5,3 9,0 61 33 65 35 SSW 1008,5 10
10.12.2019 21:00:00 8,0 4,8 9,0 63 34 68 37 SSW 1009,1 10
10.12.2019 20:00:00 7,7 4,6 9,0 63 34 72 39 SSW 1010,2 10
10.12.2019 19:00:00 7,5 4,1 9,0 65 35 72 39 S 1010,9 10
10.12.2019 18:00:00 7,3 3,8 9,0 63 34 68 37 S 1012,3 10
10.12.2019 17:00:00 7,0 3,9 9,0 57 31 61 33 S 1013,6 10
10.12.2019 16:00:00 7,2 3,6 9,0 55 30 65 35 S 1015,0 10
10.12.2019 15:00:00 7,0 3,4 9,0 59 32 65 35 S 1016,3 10
10.12.2019 14:00:00 6,5 2,8 9,0 55 30 61 33 SSW 1017,4 10
10.12.2019 13:00:00 6,5 2,8 9,0 54 29 58 31 SSW 1018,9 10

tt = temperature
td = dewpoint
tw = water temperature
ff = wind speed
fx = gusts
dd = wind direction
ppp = reduced air pressure
vv = visibility

Next stations